Showing default

MDQUBESAT-2, 58665

Orbit data source: Space-Track

MDQUBESAT-2, 58665 is a payload satellite owned by Innova Space (AR) in SSO that was launched on Fri, 01 Dec 2023 UTC via an FALCON 9 launch vehicle from the Air Force Western Test Range (AFWTR). Payload-class satellites include a variety of spacecraft equipped with specific instruments for various scientific and technological missions. These include communications satellites like Starlink; space stations such as the ISS; scientific satellites like the Hubble; Earth observation satellites from companies like Planet Labs, Umbra, and HawkEye 360; GPS; miniature CubeSats for education and research; and military/defense satellites.

Loading next visibility...
Identifier
58665, 2023-185P
Orbit
SSO
Last TLE update
10 hours ago
Origin
Manufacturer
Innova Space
Mission
Operational Commercial Communications
Bus & Motor
POCKETQUBE 2P, Unknown motor
Mass
~0.5 kg wet, ~0.5 kg dry
Launch date (UTC)
2023-12-01 (1 year ago)
Launch vehicle
FALCON 9
Launch site
Air Force Western Test Range (AFWTR)
Object type
Payload
Rocket body
Debris
Shape & HBR
Box + 2 Pan, 0.1 m
Radar Cross Section
0.006 m², Small (<0.1 m²)

Expand to show TLE details & history

TLE from 10 hours ago
0 MDQUBESAT-2
1 58665U 23185P   25131.17661912  .00021724  00000-0  84082-3 0  9995
2 58665  97.5816 204.2365 0011212 237.0908 122.9251 15.26152441 75809
Epoch: 2025-05-11T04:14Z
Definitive object data (Epoch: 2025-05-11T04:14:19.891Z)
Latitude
-0.00014°
Longitude
-88.55417°
Altitude
494.612 km
Speed
7.615 km/s
True Right ascension
13h 36m 56s
True Declination
0° 00' 01"
Sunlit
Object was in full shadow at TLE epoch
Visualization TLE readout
Latitude
80.70569°
Longitude
-142.12157°
Altitude
507.432 km
Speed
7.614 km/s
Apparent Right ascension
10h 17m 34s
Apparent Declination
24° 12' 32"
Sunlit
Object is in daylight
Visualization observer readout
Local Sidereal Time
22:20:58
Azimuth
0.859° NNE
Elevation
-25.87°
Doppler factor
1
Orbital elements
Apogee altitude
491.986 km
Perigee altitude
476.598 km
Semi-major axis
6,862.429 km
Eccentricity
0.0011212
Inclination
97.5816°
RAAN
204.2365°
Arg. of periapsis
237.0908°
True anomaly
123.03286°
Mean anomaly
122.9251°
Eccentric anomaly
122.97899°
Mean motion
3.81792 °/min
BSTAR
0.00084082
Orbital period
94.29 mins
Loading maneuver chart data...
Loading SW <> Apogee altitude chart data...
Loading historical data...
Loading historical data...
Loading historical data...
Loading historical data...
Loading historical data...
Loading historical data...
Loading historical data...

MDQUBESAT-2 Visibility forecast

Observer location: undefined°, undefined°

Span
Click to sort rows by Start time (UTC) header in descending order
Start Az.
Max El. time (UTC)
Max El. Az.
Max El.
End time (UTC)
End Az.
5 mins2025-05-11 17:24:00.043Z30.29° NE2025-05-11 17:26:00.043Z72.464° E34.374°2025-05-11 17:29:00.043Z168.955° S
4 mins2025-05-12 05:34:00.043Z232.551° WSW2025-05-12 05:35:00.043Z258.253° W23.206°2025-05-12 05:38:00.043Z319.129° NNW
|